Dewpoint
16 18 20 26 26 24 27 35 34 35 34 48 49 50 52 53 54 54 55 57 57 58 59 60 61 63 65 67 67 67 68 71 72 72 71 71 70 71 71 72 72 72 72 72
16 20 25 29 30 26 24 30 35 38 36 38 49 50 51 53 54 55 56 58 58 61 60 61 63 65 66 66 67 69 69 72 72 72 71 71 71 71 72 72 72 71 70 71
16 18 28 29 28 27 22 32 34 34 37 41 47 47 49 52 53 53 55 58 58 61 60 61 63 64 66 67 69 70 71 72 72 72 72 72 71 70 68 69 69 67 64 65
16 17 22 28 27 26 18 24 33 37 36 36 41 40 45 47 48 49 52 55 57 60 62 63 63 63 65 68 70 70 72 72 72 72 72 69 66 60 65 66 65 63 63 65
15 18 19 21 25 23 19 21 21 38 35 35 40 39 42 45 43 44 50 54 55 59 62 63 63 63 66 68 70 71 72 73 73 71 71 64 59 61 65 65 63 62 62 64
14 21 22 22 22 20 20 18 20 25 27 28 35 34 36 43 42 42 45 53 53 57 61 63 64 63 67 68 70 72 71 71 67 65 61 57 60 60 62 62 60 61 60 65
17 15 18 21 17 18 17 15 14 15 17 16 20 36 34 44 42 41 44 52 53 56 58 61 61 62 67 68 69 71 71 69 63 61 59 58 59 59 59 59 61 61 64 63
12 12 16 17 14 13 15 15 18 15 21 18 23 20 21 43 44 43 44 51 52 55 56 58 59 60 65 67 68 70 69 67 63 61 61 61 61 59 59 62 63 58 60 63
15 15 18 16 15 14 14 18 22 22 32 24 24 27 38 42 43 42 43 47 49 53 56 57 58 60 64 66 68 70 67 65 64 62 63 61 61 63 64 64 61 60 63 62
13 11 15 15 17 18 14 19 19 22 18 18 23 26 31 43 43 44 44 44 45 51 55 56 58 60 64 64 68 70 67 65 64 64 62 61 62 63 63 63 61 63 61 62
11 16 12 20 16 14 22 21 21 22 23 19 19 24 34 42 44 45 46 45 46 49 52 54 57 58 63 64 67 69 68 66 64 65 64 64 64 63 63 62 62 62 62 64
13 14 11 11 18 17 22 21 23 22 18 24 23 26 37 39 40 44 45 47 47 46 50 53 55 57 61 63 67 68 68 67 66 66 66 65 65 64 63 62 62 62 63 62
14 14 12 13 16 19 17 20 27 24 25 23 24 28 37 34 37 37 37 40 42 48 49 53 53 56 60 62 67 68 68 67 67 68 66 63 61 61 62 62 62 62 62 61
31 15 12 11 18 20 17 19 24 23 22 23 26 28 33 37 37 40 40 41 45 49 49 53 54 55 60 62 65 67 68 68 67 67 66 62 59 60 62 62 62 62 62 61
15 14 23 19 17 23 17 17 23 21 21 20 21 28 32 40 39 40 41 44 45 45 54 51 55 58 60 62 65 67 67 68 66 66 64 63 61 61 62 62 62 62 63 62
22 18 22 16 21 17 14 20 21 23 24 29 25 33 36 40 42 41 40 41 42 46 52 57 56 59 61 62 65 66 66 67 66 65 64 64 63 63 63 63 63 63 63 62
25 23 22 17 22 23 21 24 22 25 36 27 23 25 39 40 40 40 40 39 40 41 45 52 61 61 63 63 64 64 65 66 65 64 64 64 65 64 63 63 63 63 62 62
29 25 25 21 20 18 22 31 34 37 39 40 32 38 38 41 42 41 40 39 38 39 40 42 49 59 64 65 65 64 64 64 64 64 63 64 64 64 63 63 63 63 63 63
41 39 37 24 19 22 30 34 37 34 38 44 41 40 39 41 43 44 41 41 40 41 45 47 50 57 63 64 64 62 64 64 63 63 63 64 63 63 62 62 63 63 63 62
37 41 40 40 25 22 35 44 43 41 37 42 44 43 40 41 41 43 47 45 47 49 49 51 52 64 64 63 62 62 63 63 63 63 63 63 63 62 62 63 64 63 63 63
38 40 37 39 36 34 42 47 43 34 36 46 43 43 43 43 44 45 45 45 48 49 51 53 61 64 63 62 62 61 62 62 63 63 63 63 63 62 62 64 64 63 63 60
45 43 42 41 34 32 47 45 45 46 46 46 46 47 48 48 48 48 46 41 41 45 49 54 58 63 63 62 62 63 61 62 62 61 60 61 62 65 65 65 64 62 61 60
45 47 47 48 46 50 51 48 51 50 45 47 46 47 46 46 49 51 49 50 46 47 49 54 58 65 64 64 63 60 59 61 61 59 59 61 58 59 62 63 63 61 59 58
49 51 49 48 50 53 52 51 50 51 51 51 50 51 49 48 50 49 52 55 59 60 58 64 63 62 61 61 60 59 60 60 59 59 58 61 58 58 62 62 61 60 58 56
49 49 50 50 52 51 50 49 49 50 52 51 49 49 50 50 58 61 60 60 61 60 60 61 61 60 59 59 59 59 60 59 58 59 59 58 58 61 58 55 54 55 49 52
48 47 48 47 52 50 50 52 49 44 46 48 45 40 41 45 52 61 60 60 59 59 59 60 61 61 59 58 58 59 60 58 57 56 57 60 61 58 54 51 49 46 44 43
Lifted_Index
6 5 4 3 3 2 1 0 0 0 -0 -1 -2 -2 -2 -2 -2 -2 -2 -3 -3 -2 -2 -3 -3 -3 -3 -3 -3 -3 -4 -5 -5 -5 -5 -5 -5 -5 -4 -4 -4 -4 -4 -4
6 5 3 3 2 1 0 0 0 -0 -0 -1 -2 -2 -2 -2 -2 -3 -3 -3 -3 -3 -3 -3 -3 -3 -3 -3 -3 -4 -4 -5 -5 -5 -5 -5 -5 -5 -4 -4 -4 -4 -3 -3
6 4 3 2 2 1 0 -0 -0 -0 -0 -1 -2 -2 -2 -2 -3 -3 -3 -3 -3 -3 -3 -3 -3 -3 -3 -4 -4 -4 -5 -5 -5 -5 -5 -5 -4 -4 -4 -4 -4 -3 -2 -1
6 4 3 2 2 1 0 -0 -0 -0 -0 -1 -1 -2 -2 -2 -2 -2 -3 -3 -3 -3 -3 -4 -3 -3 -3 -4 -5 -5 -5 -6 -6 -6 -5 -5 -3 -2 -2 -2 -2 -1 0 1
6 5 4 3 2 1 1 0 -0 -0 -0 -1 -1 -1 -2 -2 -2 -2 -3 -3 -3 -3 -4 -4 -4 -3 -4 -5 -5 -5 -5 -6 -6 -5 -5 -4 -1 0 -0 -1 0 1 1 1
6 5 4 3 2 2 1 0 -0 -0 -0 -0 -1 -1 -1 -1 -1 -1 -2 -2 -3 -3 -4 -4 -4 -4 -4 -5 -6 -6 -6 -5 -5 -5 -4 -1 1 2 1 1 1 2 1 1
6 5 4 3 2 2 1 0 -0 -1 -1 -0 -0 -0 -0 -0 -1 -1 -1 -2 -3 -3 -3 -4 -4 -5 -5 -6 -6 -6 -6 -5 -5 -5 -2 1 3 3 2 2 2 2 1 1
5 5 4 4 3 2 1 -0 -0 -1 -1 -0 -0 -0 -0 -0 -0 -1 -1 -2 -3 -3 -3 -3 -4 -4 -5 -6 -6 -6 -6 -5 -5 -4 -2 1 2 2 2 1 1 1 1 1
5 5 4 3 2 1 0 -0 -0 -0 -0 -0 -0 -1 -0 -0 -0 -0 -1 -1 -2 -3 -3 -3 -3 -4 -5 -5 -6 -6 -5 -5 -5 -3 -1 1 1 1 1 0 0 1 1 2
5 4 3 2 1 1 0 -0 -0 -0 -0 -0 -0 -1 -1 -0 -0 -0 -1 -1 -1 -2 -2 -3 -3 -3 -4 -5 -6 -6 -5 -5 -5 -3 -1 0 1 1 0 -0 0 1 1 1
4 3 2 1 1 0 -0 -0 -1 -0 -0 -0 -0 -0 -0 -0 -0 -1 -1 -1 -1 -1 -2 -2 -3 -3 -4 -5 -5 -6 -6 -6 -5 -4 -2 -0 -0 -0 0 0 0 1 1 1
3 2 1 1 1 0 -0 -0 -0 -1 -1 -0 -0 -0 -0 0 -0 -1 -1 -1 -1 -1 -1 -2 -2 -3 -4 -4 -5 -6 -6 -6 -6 -4 -2 -2 -2 -1 -1 -0 0 1 1 1
2 1 1 1 1 0 -0 -0 -0 -1 -1 -0 -0 -0 0 0 0 0 -0 -0 -0 -0 -1 -1 -2 -3 -3 -4 -5 -5 -5 -6 -6 -5 -3 -3 -2 -2 -1 -0 -0 0 0 1
1 1 1 1 0 0 -0 -1 -1 -1 -1 -0 -0 -0 0 1 1 1 1 0 0 -0 -1 -1 -2 -2 -3 -4 -4 -5 -5 -6 -6 -5 -4 -3 -3 -2 -1 -0 -0 0 0 0
1 1 1 1 0 0 -0 -1 -1 -1 -1 -1 -1 -0 0 1 1 1 1 1 0 0 -1 -1 -2 -2 -3 -4 -4 -5 -5 -6 -6 -5 -5 -4 -3 -2 -1 -0 -0 -0 -0 -0
0 0 0 0 0 -0 -0 -1 -1 -1 -1 -1 -1 -0 0 0 1 1 0 0 0 0 -1 -1 -2 -3 -3 -4 -4 -5 -5 -5 -5 -5 -5 -4 -3 -2 -2 -1 -1 -1 -1 -1
0 0 -0 0 -0 -0 -1 -1 -1 -1 -1 -1 -0 -0 -0 -0 0 0 0 0 0 0 0 -1 -2 -3 -4 -5 -5 -4 -5 -5 -5 -5 -5 -4 -3 -2 -2 -2 -2 -1 -1 -1
0 0 -0 -0 -0 -0 -1 -1 -1 -1 -0 -0 -0 -0 -0 -0 0 0 0 0 1 1 1 1 -1 -3 -5 -5 -5 -5 -5 -5 -5 -5 -4 -3 -3 -2 -2 -2 -2 -2 -2 -3
1 0 0 -0 -1 -1 -0 -0 -0 -0 -0 -0 0 0 0 0 0 1 1 1 1 1 1 1 -0 -2 -4 -5 -5 -5 -5 -5 -5 -5 -4 -3 -3 -3 -3 -3 -3 -3 -3 -4
1 1 0 -0 -1 -1 -0 0 1 0 0 0 0 1 0 0 0 0 1 1 1 0 -0 -1 -2 -3 -4 -5 -5 -5 -5 -5 -5 -4 -4 -3 -3 -3 -4 -3 -3 -4 -4 -4
1 0 0 -0 -1 -0 0 1 1 1 1 1 1 1 0 0 -0 0 0 0 0 -0 -1 -2 -3 -4 -5 -5 -5 -5 -5 -5 -5 -4 -3 -3 -3 -4 -4 -4 -4 -4 -4 -4
0 -0 -0 -0 -0 -0 -0 0 0 1 1 1 1 0 1 0 -0 0 0 0 0 -0 -1 -2 -3 -4 -5 -5 -5 -5 -5 -5 -4 -3 -3 -3 -3 -3 -4 -4 -4 -4 -4 -3
-0 -0 -0 -0 -0 -0 -0 -0 -0 -0 0 1 0 0 0 0 0 0 0 0 -0 -1 -1 -2 -3 -4 -4 -5 -5 -5 -5 -5 -4 -3 -3 -2 -1 -1 -1 -3 -3 -3 -3 -3
0 -0 -0 -1 -0 -0 -0 -0 -0 -0 -0 0 0 0 0 -0 -1 -1 -1 -1 -2 -3 -3 -4 -4 -4 -5 -5 -5 -5 -5 -4 -4 -3 -2 -1 0 1 -0 -2 -3 -3 -2 -2
-0 -1 -1 -1 -0 0 0 0 -0 -0 -0 -0 0 0 0 -0 -2 -3 -4 -3 -4 -4 -5 -5 -6 -6 -5 -5 -5 -4 -4 -3 -2 -1 -0 0 1 0 -1 -2 -3 -2 -2 -1
-1 -1 -1 -1 0 0 0 0 0 -0 -0 -0 0 0 1 0 -2 -4 -5 -5 -4 -5 -5 -6 -6 -6 -6 -5 -5 -4 -2 -1 0 1 1 1 0 -0 -1 -2 -2 -2 -1 -1